"TOA5","AWS1","CR1000","7964","CR1000.Std.14","CPU:AWS1_114.CR1","64363","TBL110"
"TIMESTAMP","RECORD","Wind_spd_WVc(1)","Wind_spd_WVc(2)","Air_Temp_Avg","Humidity_Avg","SW_upper_Wm2_Avg","Rain_Tot","Press_Avg","Issui_Tot","Depth_cm","SR50A_Raw","Quality","Ground_Temp_Avg(1)","Ground_Temp_Avg(2)","SW_lower_Wm2_Avg","Albedo_Avg","SWC_per(1)","SWC_per(2)","Period(1)","Period(2)"
"TS","RN","","","","","","","","","","","","","","","","","","",""
"","","WVc","WVc","Avg","Avg","Avg","Tot","Avg","Tot","Smp","Smp","Smp","Avg","Avg","Avg","Avg","Smp","Smp","Smp","Smp"
"2015-12-19 00:00:00",214189,0.541,199.4,-1.923,70.34,0,0,870.0246,0,1.547,3.176,210,3.621,4.708,0.5877802,0,51.77,59.85,33.73,35.64
"2015-12-19 00:10:00",214190,0.69,325.8,-1.933,69.49,0,0,869.8792,0,1.745,3.174,223,3.621,4.705,0.3716288,0,51.77,59.85,33.73,35.64
"2015-12-19 00:20:00",214191,0.615,340.1,-1.98,71.54,0,0,869.8223,0,1.521,3.176,195,3.621,4.701,0.3261232,0,51.82,59.85,33.75,35.64
"2015-12-19 00:30:00",214192,0.456,345.9,-1.82,70.27,0,0,869.7253,0,1.495,3.175,198,3.621,4.703,0.5043533,0,51.77,59.85,33.73,35.64
"2015-12-19 00:40:00",214193,0.393,358.4,-1.71,70.49,0,0,869.6635,0,1.893,3.171,225,3.621,4.702,0.6674149,0,51.82,59.85,33.75,35.64
"2015-12-19 00:50:00",214194,0.277,34.96,-1.886,73.12,0,0,869.6777,0,1.371,3.177,196,3.621,4.699,0.2995783,0,51.77,59.85,33.73,35.64
"2015-12-19 01:00:00",214195,0.667,329.1,-1.973,74.16,0,0,869.6951,0,1.422,3.178,217,3.621,4.701,0.3412917,0,51.77,59.85,33.73,35.64
"2015-12-19 01:10:00",214196,0.499,28.5,-2.232,77.27,0,0,869.6376,0,0.803,3.186,201,3.62,4.706,0.1099718,0,51.77,59.85,33.73,35.64
"2015-12-19 01:20:00",214197,0.465,71.69,-2.56,81.4,0,0,869.7609,0,0.342,3.192,190,3.613,4.693,0,0,51.77,59.85,33.73,35.64
"2015-12-19 01:30:00",214198,0.508,300.1,-2.686,84.8,0,0,869.8264,0,0.692,3.189,198,3.603,4.68,0.03412674,0,51.77,59.85,33.73,35.64
"2015-12-19 01:40:00",214199,0.242,332.2,-2.701,86.1,0,0,869.827,0,1.166,3.184,208,3.603,4.68,0.1061715,0,51.77,59.85,33.73,35.64
"2015-12-19 01:50:00",214200,0.258,89.4,-2.729,86.7,0,0,869.8115,0,0.945,3.187,189,3.597,4.642,0.193381,0,51.77,59.85,33.73,35.64
"2015-12-19 02:00:00",214201,0.646,190,-2.833,87.6,0,0,869.776,0,0.974,3.187,203,3.597,4.64,0.2237092,0,51.77,59.85,33.73,35.64
"2015-12-19 02:10:00",214202,0.398,7.792,-2.805,87.5,0,0,869.7332,0,1.272,3.183,212,3.61,4.631,0.2275011,0,51.77,59.85,33.73,35.64
"2015-12-19 02:20:00",214203,0.69,45.58,-2.723,86.4,0,0,869.7943,0,1.821,3.178,220,3.613,4.622,0.2199146,0,51.77,59.85,33.73,35.64
"2015-12-19 02:30:00",214204,0.952,53.22,-2.679,85.6,0,0,869.7739,0,1.5,3.181,226,3.62,4.618,0.1099565,0,51.77,59.85,33.73,35.64
"2015-12-19 02:40:00",214205,0.485,359.4,-2.799,86.9,0,0,869.7692,0,1.599,3.18,230,3.623,4.6,0.06445665,0,51.77,59.85,33.73,35.64
"2015-12-19 02:50:00",214206,0.547,5.318,-2.69,85.8,0,0,869.7581,0,1.525,3.18,217,3.621,4.605,0.2995314,0,51.77,59.85,33.73,35.64
"2015-12-19 03:00:00",214207,0.568,337.8,-2.491,84.1,0,0,869.6119,0,1.92,3.175,259,3.623,4.598,0.5004849,0,51.77,59.85,33.73,35.64
"2015-12-19 03:10:00",214208,0.492,308.3,-2.363,83.1,0,0,869.5508,0,1.897,3.175,256,3.621,4.551,0.3639873,0,51.77,59.85,33.73,35.64
"2015-12-19 03:20:00",214209,0.224,5.232,-2.388,83.6,0,0,869.5788,0,1.822,3.176,259,3.62,4.533,0.2805714,0,51.77,59.85,33.73,35.64
"2015-12-19 03:30:00",214210,0.357,15.68,-2.45,84.3,0,0,869.6205,0,1.772,3.176,252,3.622,4.544,0.2274923,0,51.77,59.85,33.73,35.64
"2015-12-19 03:40:00",214211,0.368,138.7,-2.399,84.4,0,0,869.5587,0,1.746,3.177,250,3.623,4.546,0.227493,0,51.71,59.85,33.72,35.64
"2015-12-19 03:50:00",214212,0.442,350.8,-2.434,85,0,0,869.5523,0,1.498,3.179,236,3.622,4.537,0.238867,0,51.77,59.85,33.73,35.64
"2015-12-19 04:00:00",214213,0.241,233.5,-2.348,85.6,0,0,869.5461,0,0.977,3.184,186,3.62,4.552,0.2274905,0,51.77,59.85,33.73,35.64
"2015-12-19 04:10:00",214214,0.432,313.8,-2.377,86.9,0,0,869.5444,0,1.276,3.181,190,3.619,4.556,0.2274896,0,51.77,59.85,33.73,35.64
"2015-12-19 04:20:00",214215,0.531,322.5,-2.798,90.8,0.129766,0,869.5508,0,1.479,3.182,192,3.618,4.55,0.04549786,0.016,51.77,59.85,33.73,35.64
"2015-12-19 04:30:00",214216,0.452,341.3,-2.745,92,0,0,869.5398,0,1.279,3.183,191,3.619,4.56,0.1630339,0,51.77,59.85,33.73,35.64
"2015-12-19 04:40:00",214217,0.466,303.7,-2.837,93.2,0,0,869.6494,0,0.981,3.187,184,3.611,4.565,0.07203824,0,51.77,59.85,33.73,35.64
"2015-12-19 04:50:00",214218,1.105,321.4,-2.856,94,0,0,869.7973,0,2.025,3.176,178,3.6,4.558,0.1516595,0,51.77,59.85,33.73,35.64
"2015-12-19 05:00:00",214219,1.324,311.2,-2.715,93,0,0,869.8094,0.5,2.175,3.174,186,3.584,4.566,0.2123231,0,51.77,59.85,33.73,35.64
"2015-12-19 05:10:00",214220,0.695,344.6,-2.729,93.4,0,0,869.8033,0,1.925,3.177,169,3.576,4.567,0.1099521,0,51.71,59.79,33.72,35.63
"2015-12-19 05:20:00",214221,1.068,308.7,-2.845,94,0,0,869.8505,0,2.068,3.176,182,3.578,4.574,0.04170658,0,51.71,59.79,33.72,35.63
"2015-12-19 05:30:00",214222,0.901,273.8,-2.88,94.4,0,0,870.0508,0,2.314,3.174,191,3.591,4.587,0.00758346,0,51.71,59.79,33.72,35.63
"2015-12-19 05:40:00",214223,1.774,293,-2.988,94.6,0.02752818,0,870.2512,0,2.563,3.172,170,3.594,4.59,0,0,51.71,59.85,33.72,35.64
"2015-12-19 05:50:00",214224,1.038,245.8,-2.982,93.7,0,0,870.3144,0,2.488,3.172,184,3.585,4.589,0.1895878,0,51.77,59.85,33.73,35.64
"2015-12-19 06:00:00",214225,0.785,173.9,-2.989,92.5,0,0,870.3759,0,2.536,3.172,170,3.538,4.592,0.0947951,0,51.77,59.79,33.73,35.63
"2015-12-19 06:10:00",214226,0.795,210.6,-2.936,92.5,0,0,870.4454,0,2.48,3.172,170,3.533,4.598,0.2275132,0,51.77,59.79,33.73,35.63
"2015-12-19 06:20:00",214227,1.023,281.7,-2.924,91.7,0,0,870.5804,0,2.452,3.173,170,3.528,4.608,0.2275213,0,51.71,59.79,33.72,35.63
"2015-12-19 06:30:00",214228,1.103,325.5,-3.05,92.9,0,0,870.6396,0,2.376,3.174,170,3.533,4.613,0.03033664,0,51.77,59.79,33.73,35.63
"2015-12-19 06:40:00",214229,0.603,165.3,-3.081,94.4,0,0,870.8651,0,2.351,3.174,187,3.533,4.606,0.1668534,0,51.71,59.79,33.72,35.63
"2015-12-19 06:50:00",214230,1.671,299.5,-3.166,95.8,0.1533857,0,870.8604,0.5,2.402,3.175,189,3.534,4.614,0.3867971,1.302,51.71,59.79,33.72,35.63
"2015-12-19 07:00:00",214231,0.768,199.5,-3.209,96.3,0.4916211,0,870.7465,0,2.327,3.175,190,3.534,4.605,1.532021,3.31,51.71,59.79,33.72,35.63
"2015-12-19 07:10:00",214232,0.47,207.8,-3.177,95.6,0.2989056,0,870.965,0,2.377,3.175,191,3.534,4.614,1.615448,5.914,51.71,59.79,33.72,35.63
"2015-12-19 07:20:00",214233,1,242.2,-3.29,95.6,0.9203133,0,871.095,0,2.354,3.176,190,3.536,4.605,2.764459,3.07,51.71,59.79,33.72,35.63
"2015-12-19 07:30:00",214234,1.043,261.9,-3.324,95.7,2.104111,0,871.2639,0,2.305,3.176,181,3.531,4.59,6.21143,2.96,51.71,59.79,33.72,35.63
"2015-12-19 07:40:00",214235,1.065,272.4,-3.34,95.6,1.907474,0,871.401,0,2.18,3.178,182,3.534,4.585,5.669187,2.944,51.71,59.85,33.72,35.64
"2015-12-19 07:50:00",214236,1.145,277.5,-3.417,96.1,2.812066,0,871.5886,0,2.329,3.177,189,3.539,4.577,8.09997,2.88,51.71,59.79,33.72,35.63
"2015-12-19 08:00:00",214237,1.118,254.2,-3.373,94.7,6.052835,0,871.6202,0,2.18,3.178,190,3.548,4.582,18.94547,3.122,51.77,59.79,33.73,35.63
"2015-12-19 08:10:00",214238,1.423,325.3,-3.42,91.5,9.474467,0,871.6445,0,2.232,3.178,190,3.559,4.587,29.14236,3.053,51.71,59.79,33.72,35.63
"2015-12-19 08:20:00",214239,1.066,265.1,-3.4,90,10.96892,0,871.7965,0,2.157,3.179,191,3.54,4.568,33.49929,3.063,51.77,59.79,33.73,35.63
"2015-12-19 08:30:00",214240,0.889,261.7,-3.469,88.3,13.42315,0,872.0439,0,2.056,3.179,190,3.536,4.571,40.29874,2.987,51.71,59.79,33.72,35.63
"2015-12-19 08:40:00",214241,0.706,260,-3.379,87.1,16.78588,0,872.1425,0,1.981,3.18,190,3.544,4.566,52.51712,3.13,51.77,59.79,33.73,35.63
"2015-12-19 08:50:00",214242,1.138,299,-3.447,86.6,16.64809,0,872.2145,0,1.96,3.181,190,3.536,4.556,50.12011,2.991,51.71,59.79,33.72,35.63
"2015-12-19 09:00:00",214243,0.719,305.9,-3.506,86.8,15.4956,0,872.3915,0,1.959,3.18,190,3.535,4.563,48.05674,3.095,51.71,59.85,33.72,35.64
"2015-12-19 09:10:00",214244,1.028,287.2,-3.419,84.2,19.12574,0,872.4252,0,1.883,3.181,190,3.531,4.565,58.32966,3.048,51.71,59.79,33.72,35.63
"2015-12-19 09:20:00",214245,0.903,282,-3.366,81.8,27.49521,0,872.6053,0,1.857,3.181,189,3.534,4.568,81.90572,2.98,51.71,59.79,33.72,35.63
"2015-12-19 09:30:00",214246,1.308,312.5,-3.363,80.2,31.58561,0,872.6557,0,1.831,3.181,189,3.534,4.561,93.33553,2.956,51.71,59.79,33.72,35.63
"2015-12-19 09:40:00",214247,0.97,290.8,-3.234,79.71,36.29712,0,872.6442,0,2.105,3.177,189,3.533,4.54,108.8372,3.043,51.71,59.79,33.72,35.63
"2015-12-19 09:50:00",214248,0.665,265.5,-2.754,76.96,54.65795,0,872.6155,0,1.685,3.178,190,3.507,4.585,165.5458,3.078,51.71,59.73,33.72,35.62
"2015-12-19 10:00:00",214249,1.01,295.4,-2.637,75.23,40.5529,0,872.5976,0,1.871,3.178,190,3.532,4.549,123.5245,2.992,51.71,59.79,33.72,35.63
"2015-12-19 10:10:00",214250,0.865,299.4,-3.025,77.78,33.3343,0,872.7225,0,1.76,3.18,189,3.498,4.563,98.928,2.975,51.71,59.73,33.72,35.62
"2015-12-19 10:20:00",214251,0.806,340.5,-3.27,84,21.97203,0,872.7324,0,1.798,3.182,187,3.488,4.549,64.31394,2.917,51.77,59.73,33.73,35.62
"2015-12-19 10:30:00",214252,0.619,296.2,-3.307,88.1,32.09128,0,872.7611,0,1.553,3.183,170,3.5,4.53,95.61271,2.99,51.71,59.79,33.72,35.63
"2015-12-19 10:40:00",214253,0.549,292.4,-3.197,84.5,35.53461,0,872.8083,0,1.506,3.184,174,3.526,4.518,107.0777,3.012,51.71,59.73,33.72,35.62
"2015-12-19 10:50:00",214254,0.72,303.4,-3.29,83.4,29.28292,0,872.8143,0,1.285,3.187,192,3.473,4.524,85.87051,2.928,51.71,59.73,33.72,35.62
"2015-12-19 11:00:00",214255,0.586,9.01,-3.369,83.6,40.07514,0,872.8079,0,1.484,3.185,191,3.445,4.526,120.89,2.983,51.71,59.73,33.72,35.62
"2015-12-19 11:10:00",214256,0.396,267.8,-2.994,83.7,45.02896,0,872.8037,0,1.404,3.182,190,3.471,4.52,135.405,2.997,51.71,59.73,33.72,35.62
"2015-12-19 11:20:00",214257,0.629,357.3,-3.18,81.6,50.45067,0,872.7805,0,1.309,3.186,190,3.489,4.495,147.5243,2.939,51.71,59.73,33.72,35.62
"2015-12-19 11:30:00",214258,0.295,343.8,-3.016,81.9,47.31716,0,872.5741,0,0.933,3.188,192,3.47,4.483,140.0108,2.962,51.71,59.73,33.72,35.62
"2015-12-19 11:40:00",214259,0.673,354.7,-3.209,81.9,38.74621,0,872.5551,0,1.307,3.185,191,3.46,4.483,111.0754,2.871,51.77,59.73,33.73,35.62
"2015-12-19 11:50:00",214260,0.394,304.8,-3.214,82,39.52467,0,872.5551,0,1.258,3.186,191,3.451,4.484,115.8139,2.93,51.71,59.73,33.72,35.62
"2015-12-19 12:00:00",214261,0.483,26.48,-3.149,82.6,26.67217,0,872.532,0,1.285,3.187,192,3.464,4.484,76.90096,2.871,51.71,59.73,33.72,35.62
"2015-12-19 12:10:00",214262,0.609,344.6,-3.411,83.6,30.37184,0,872.4519,0,1.11,3.188,192,3.482,4.495,88.02706,2.876,51.71,59.73,33.72,35.62
"2015-12-19 12:20:00",214263,0.262,286.7,-3.068,82.6,38.69509,0,872.4814,0,1.032,3.187,192,3.468,4.484,118.7101,3.064,51.71,59.79,33.72,35.63
"2015-12-19 12:30:00",214264,0.557,282.6,-3.16,81.2,38.3727,0,872.5088,0,1.01,3.189,179,3.451,4.483,112.1861,2.922,51.71,59.73,33.72,35.62
"2015-12-19 12:40:00",214265,0.431,18.47,-3.244,81.1,33.51321,0,872.5551,0,0.938,3.191,170,3.448,4.484,96.99998,2.891,51.71,59.73,33.72,35.62
"2015-12-19 12:50:00",214266,0.499,335.7,-3.416,82.5,31.32329,0,872.6036,0,0.962,3.19,174,3.46,4.481,90.11581,2.874,51.71,59.73,33.72,35.62
"2015-12-19 13:00:00",214267,0.58,315.9,-3.242,81.7,41.231,0,872.6942,0,0.762,3.191,170,3.473,4.49,117.9899,2.871,51.71,59.73,33.72,35.62
"2015-12-19 13:10:00",214268,0.848,318.3,-3.217,79.78,43.01595,0,872.5933,0,1.108,3.187,176,3.469,4.486,123.9604,2.886,51.71,59.73,33.72,35.62
"2015-12-19 13:20:00",214269,0.432,297.2,-2.696,78.4,80.86575,0,872.5535,0,0.656,3.189,187,3.451,4.483,192.6277,2.474,51.71,59.73,33.72,35.62
"2015-12-19 13:30:00",214270,0.877,6.034,-2.635,75.95,57.80675,0,872.5549,0,0.805,3.187,179,3.458,4.483,144.1277,2.563,51.71,59.73,33.72,35.62
"2015-12-19 13:40:00",214271,0.281,53.62,-2.574,77.04,41.72638,0,872.5257,0,0.656,3.189,179,3.48,4.483,110.3741,2.684,51.71,59.73,33.72,35.62
"2015-12-19 13:50:00",214272,0.637,322.6,-2.828,79,35.52594,0,872.4952,0,0.811,3.188,179,3.459,4.481,93.62547,2.635,51.66,59.73,33.7,35.62
"2015-12-19 14:00:00",214273,0.807,312.9,-2.991,79.24,39.78121,0,872.4714,0,0.751,3.19,185,3.437,4.463,107.9134,2.714,51.71,59.73,33.72,35.62
"2015-12-19 14:10:00",214274,0.557,309.5,-2.99,79.59,29.22362,0,872.4355,0,0.736,3.192,192,3.413,4.444,62.83584,2.22,51.71,59.73,33.72,35.62
"2015-12-19 14:20:00",214275,0.648,273.4,-3.17,79.89,29.02621,0,872.4271,0,0.637,3.192,191,3.419,4.426,73.63208,2.555,51.71,59.73,33.72,35.62
"2015-12-19 14:30:00",214276,0.531,277.4,-2.984,79.77,33.66846,0,872.468,0,0.735,3.189,187,3.436,4.433,98.48375,2.922,51.66,59.73,33.7,35.62
"2015-12-19 14:40:00",214277,0.856,354.8,-2.949,79.11,22.99271,0,872.4802,0,0.824,3.19,192,3.452,4.412,63.72592,2.769,51.66,59.73,33.7,35.62
"2015-12-19 14:50:00",214278,0.63,9.95,-3.047,79.8,22.62094,0,872.5806,0,0.646,3.192,192,3.509,4.421,61.78615,2.727,51.66,59.73,33.7,35.62
"2015-12-19 15:00:00",214279,0.318,249.3,-3.12,81.1,15.07312,0,872.7618,0,0.617,3.192,190,3.502,4.428,41.5152,2.766,51.66,59.73,33.7,35.62
"2015-12-19 15:10:00",214280,0.817,291.7,-3.324,82,14.00023,0,872.7683,0,0.716,3.193,192,3.459,4.459,38.82114,2.764,51.71,59.73,33.72,35.62
"2015-12-19 15:20:00",214281,0.516,281.4,-3.263,82.2,21.49797,0,872.8167,0,0.662,3.192,192,3.443,4.479,63.71968,2.963,51.66,59.67,33.7,35.6
"2015-12-19 15:30:00",214282,0.469,289,-3.143,81.1,19.23347,0,872.8734,0,0.539,3.194,188,3.444,4.481,54.11785,2.808,51.66,59.67,33.7,35.6
"2015-12-19 15:40:00",214283,0.382,271.1,-3.181,82.3,15.7265,0,872.9122,0,0.613,3.193,187,3.444,4.482,43.59459,2.764,51.71,59.73,33.72,35.62
"2015-12-19 15:50:00",214284,0.459,294.6,-3.405,83.3,7.745305,0,873.0626,0,0.492,3.196,174,3.445,4.473,20.30372,2.609,51.71,59.67,33.72,35.6
"2015-12-19 16:00:00",214285,0.53,278.8,-3.676,85.4,5.409918,0,873.126,0,0.446,3.198,179,3.448,4.496,13.96165,2.57,51.71,59.67,33.72,35.6
"2015-12-19 16:10:00",214286,0.289,290.2,-3.856,86.9,4.847696,0,873.303,0,0.423,3.199,174,3.472,4.493,13.72662,2.838,51.71,59.73,33.72,35.62
"2015-12-19 16:20:00",214287,0.506,312.9,-4.061,87.4,3.023421,0,873.3115,0,0.304,3.202,179,3.44,4.451,9.298922,3.007,51.71,59.73,33.72,35.62
"2015-12-19 16:30:00",214288,0.494,302.5,-4.307,88.4,1.273847,0,873.1724,0,0.431,3.202,171,3.435,4.455,4.177502,3.436,51.66,59.73,33.7,35.62
"2015-12-19 16:40:00",214289,0.256,314.5,-4.512,89.3,0.3105985,0,873.067,0,0.632,3.201,182,3.442,4.471,1.789275,2.885,51.71,59.73,33.72,35.62
"2015-12-19 16:50:00",214290,0.451,302.2,-4.637,89.9,0,0,873.1113,0,0.485,3.203,174,3.446,4.415,0.5686255,0,51.66,59.73,33.7,35.62
"2015-12-19 17:00:00",214291,0.111,300.1,-4.788,90.5,0,0,873.3326,0,0.561,3.203,187,3.442,4.397,0,0,51.71,59.73,33.72,35.62
"2015-12-19 17:10:00",214292,0.046,127.1,-4.778,91.5,0,0,873.5095,0,0.485,3.203,174,3.402,4.415,0.394247,0,51.66,59.73,33.7,35.62
"2015-12-19 17:20:00",214293,0.014,90.1,-4.647,92,0,0,873.5664,0,0.575,3.201,191,3.404,4.432,0.7278513,0,51.66,59.73,33.7,35.62
"2015-12-19 17:30:00",214294,0.072,290.9,-4.566,92.5,0,0,873.5789,0,0.618,3.201,192,3.417,4.439,0.6823946,0,51.71,59.73,33.72,35.62
"2015-12-19 17:40:00",214295,0.094,76.96,-4.51,93.1,0,0,873.7628,0,0.458,3.201,191,3.43,4.446,0.6786368,0,51.71,59.73,33.72,35.62
"2015-12-19 17:50:00",214296,0.1,352.4,-4.507,92.2,0,0,873.9769,0,0.628,3.201,187,3.448,4.462,0.3526087,0,51.71,59.73,33.72,35.62
"2015-12-19 18:00:00",214297,0.121,32.84,-4.625,92.6,0,0,873.9997,0,0.531,3.202,170,3.45,4.433,0.2274936,0,51.71,59.73,33.72,35.62
"2015-12-19 18:10:00",214298,0.04,45.89,-4.74,93,0,0,874.1155,0,0.58,3.202,170,3.45,4.411,0.09099772,0,51.71,59.73,33.72,35.62
"2015-12-19 18:20:00",214299,0.049,18.53,-4.809,93.6,0,0,874.1652,0,0.604,3.203,174,3.455,4.4,0.1175397,0,51.71,59.73,33.72,35.62
"2015-12-19 18:30:00",214300,0.256,17.03,-4.954,94.1,0.08651607,0,874.2856,0,0.605,3.203,173,3.462,4.406,0,0,51.71,59.73,33.72,35.62
"2015-12-19 18:40:00",214301,0.152,315.8,-5.023,94,0.05898661,0,874.3797,0,0.807,3.202,187,3.457,4.402,0,0,51.71,59.73,33.72,35.62
"2015-12-19 18:50:00",214302,0.059,25.75,-5.017,93.6,0,0,874.3826,0,0.755,3.202,190,3.462,4.405,0,0,51.71,59.73,33.72,35.62
"2015-12-19 19:00:00",214303,0.275,7.719,-5.077,93.3,0,0,874.3856,0,0.751,3.203,190,3.488,4.416,0,0,51.71,59.73,33.72,35.62
"2015-12-19 19:10:00",214304,0.301,322.5,-5.243,93.9,0.05899192,0,874.408,0,0.822,3.203,185,3.506,4.427,0,0,51.71,59.73,33.72,35.62
"2015-12-19 19:20:00",214305,0.163,315.9,-5.385,94.2,0,0,874.5164,0,0.598,3.206,182,3.522,4.438,0,0,51.71,59.73,33.72,35.62
"2015-12-19 19:30:00",214306,0.146,307,-5.548,94.3,0,0,874.606,0,0.726,3.206,178,3.499,4.457,0,0,51.66,59.73,33.7,35.62
"2015-12-19 19:40:00",214307,0.291,339.4,-5.487,92.9,0,0,874.4523,0,0.626,3.206,174,3.489,4.465,0.01137608,0,51.71,59.73,33.72,35.62
"2015-12-19 19:50:00",214308,0.274,228.1,-5.543,91.9,0,0,874.4059,0,0.774,3.205,181,3.48,4.479,0,0,51.71,59.73,33.72,35.62
"2015-12-19 20:00:00",214309,0.152,205.7,-5.67,93.4,0,0,874.4191,0,0.53,3.209,174,3.474,4.488,0,0,51.66,59.73,33.7,35.62
"2015-12-19 20:10:00",214310,0.362,211.8,-5.911,94.2,0,0,874.3917,0,0.383,3.211,170,3.446,4.462,0,0,51.71,59.73,33.72,35.62
"2015-12-19 20:20:00",214311,0.182,237.4,-6.082,94.3,0,0,874.3665,0,0.68,3.208,170,3.409,4.44,0.02654491,0,51.66,59.73,33.7,35.62
"2015-12-19 20:30:00",214312,0.031,298.4,-6.22,93.3,0,0,874.1789,0,0.514,3.212,169,3.41,4.387,0.08342686,0,51.66,59.73,33.7,35.62
"2015-12-19 20:40:00",214313,0.076,222.3,-6.509,92.7,0,0,874.1789,0,0.698,3.213,182,3.438,4.359,0.06446622,0,51.66,59.73,33.7,35.62
"2015-12-19 20:50:00",214314,0.041,89.1,-6.793,93.3,0,0,874.2548,0,0.552,3.215,174,3.446,4.371,0.007584261,0,51.71,59.73,33.72,35.62
"2015-12-19 21:00:00",214315,0.06,201.9,-6.891,93.5,0,0,874.4297,0,0.556,3.216,169,3.447,4.397,0.1554773,0,51.66,59.73,33.7,35.62
"2015-12-19 21:10:00",214316,0,0,-7.258,93.7,0,0,874.4529,0,0.758,3.215,174,3.478,4.397,0.07205047,0,51.66,59.67,33.7,35.6
"2015-12-19 21:20:00",214317,0.022,186.4,-7.057,94.4,0,0,874.4297,0,0.603,3.215,169,3.483,4.4,0.3299153,0,51.71,59.67,33.72,35.6
"2015-12-19 21:30:00",214318,0.027,186.4,-6.999,93.6,0,0,874.5077,0,0.805,3.214,179,3.435,4.401,0.4209265,0,51.66,59.73,33.7,35.62
"2015-12-19 21:40:00",214319,0.207,186.4,-7.197,93.4,0,0,874.5899,0,0.856,3.214,174,3.403,4.401,0.3261232,0,51.66,59.73,33.7,35.62
"2015-12-19 21:50:00",214320,0.202,186.5,-7.232,93.2,0,0,874.5899,0,0.684,3.216,174,3.403,4.42,0.379213,0,51.66,59.73,33.7,35.62
"2015-12-19 22:00:00",214321,0.215,190,-7.322,92.2,0,0,874.6552,0,0.809,3.215,174,3.403,4.431,0.2275278,0,51.71,59.67,33.72,35.6
"2015-12-19 22:10:00",214322,0.129,196.7,-7.253,92.1,0,0,874.6426,0,0.71,3.216,179,3.393,4.44,0.2464885,0,51.66,59.67,33.7,35.6
"2015-12-19 22:20:00",214323,0.213,198.9,-7.36,92.1,0,0,874.6721,0,0.76,3.216,183,3.395,4.441,0.2882024,0,51.66,59.67,33.7,35.6
"2015-12-19 22:30:00",214324,0.024,198.4,-7.3,92,0,0,874.6721,0,0.617,3.219,187,3.367,4.446,0.4436896,0,51.71,59.67,33.72,35.6
"2015-12-19 22:40:00",214325,0.077,221.2,-7.491,92.8,0,0,874.6768,0,0.695,3.215,191,3.371,4.447,0.4740406,0,51.66,59.67,33.7,35.6
"2015-12-19 22:50:00",214326,0.037,191.8,-7.364,92.1,0,0,874.6926,0,0.944,3.215,191,3.387,4.449,0.4020014,0,51.71,59.67,33.72,35.6
"2015-12-19 23:00:00",214327,0.23,195.8,-7.533,92.3,0,0,874.7151,0,0.865,3.216,186,3.415,4.442,0.2275636,0,51.71,59.67,33.72,35.6
"2015-12-19 23:10:00",214328,0.103,198.9,-7.423,92.5,0,0,874.7204,0,0.682,3.217,192,3.447,4.412,0.2920506,0,51.71,59.67,33.72,35.6
"2015-12-19 23:20:00",214329,0.11,198.5,-7.476,91.7,0,0,874.7246,0,0.872,3.215,192,3.465,4.391,0.1934458,0,51.66,59.67,33.7,35.6
"2015-12-19 23:30:00",214330,0.097,198.5,-7.457,91.7,0,0,874.733,0,0.869,3.215,191,3.475,4.351,0.3300084,0,51.71,59.67,33.72,35.6
"2015-12-19 23:40:00",214331,0.14,198.7,-7.447,91.8,0,0,874.6893,0,0.922,3.216,191,3.479,4.353,0.4741546,0,51.71,59.67,33.72,35.6
"2015-12-19 23:50:00",214332,0.222,210.5,-7.584,92.3,0,0,874.6777,0,0.624,3.219,174,3.482,4.352,0.4286416,0,51.71,59.67,33.72,35.6
